Regional Weather Roundup
Issued by NWS

Home | Current Version | Previous Version | Graphics & Text | Print | Product List | Glossary On
Versions: 1 2 3 4 5 6 7 8 9 10 11 12 13 14 15 16 17 18 19 20 21 22 23 24 25 26 27 28 29 30 31 32 33 34 35 36 37 38 39 40 41 42 43 44 45 46 47 48 49 50
000
ASUS43 KLSX 281107
RWRMO

WEATHER SUMMARY FOR MISSOURI
NATIONAL WEATHER SERVICE SPRINGFIELD MO
500 AM CST WED JAN 28 2015

NOTE: "FAIR" INDICATES FEW OR NO CLOUDS BELOW 12,000 FEET WITH NO
       SIGNIFICANT WEATHER AND/OR OBSTRUCTIONS TO VISIBILITY.
       CURRENT SKY AND/OR WEATHER CONDITIONS ARE NOT AVAILABLE FOR
       CHILLICOTHE AND FARMINGTON.

MOZ001>031-035>038-043-044-053-054-281200-
...NORTHERN AND WESTERN MISSOURI...

CITY           SKY/WX    TMP DP  RH WIND       PRES   REMARKS
KANSAS CTY INT CLEAR     42  30  62 SE14      29.95F
KANSAS C DTWN  CLEAR     43  29  57 SE5       29.97F
LEE`S SUMMIT   CLEAR     42  29  59 SE10G17   29.97F
ST JOSEPH      CLEAR     38  30  73 SE10      29.95F
CHILLICOTHE      N/A     33  29  85 SE8       30.04F WCI  26
KIRKSVILLE     CLEAR     28  27  96 SE13      30.10F FOG     WCI  17

$$
MOZ066>068-077>081-088>096-101>105-281200-
...SOUTHWEST MISSOURI...

CITY           SKY/WX    TMP DP  RH WIND       PRES   REMARKS
SPRINGFIELD    CLEAR     40  34  79 SE22      30.06F WCI  30
JOPLIN         CLEAR     50  31  48 S14       30.02F

$$
MOZ032>034-039>042-045>050-055>058-069>072-281200-
...CENTRAL MISSOURI...

CITY           SKY/WX    TMP DP  RH WIND       PRES   REMARKS
COLUMBIA       CLEAR     31  28  89 SE14      30.10F WCI  21
JEFFERSON CITY CLEAR     33  28  81 E12       30.13F WCI  24
ROLLA          CLEAR     32  27  81 SE12      30.12F WCI  23
SEDALIA        CLEAR     37  30  75 SE12      30.05F WCI  29
WHITEMAN AFB   CLEAR     42  31  66 S13       30.00F
WARRENSBURG    CLEAR     41  32  70 SE12      30.00S
OSAGE BEACH    CLEAR     37  30  75 SE10G18   30.09F

$$
MOZ051-052-059>065-281200-
...EAST CENTRAL MISSOURI...

CITY           SKY/WX    TMP DP  RH WIND       PRES   REMARKS
ST LOUIS INTL  CLEAR     31  26  82 SE10      30.23S WCI  22
SPIRIT OF STL  CLEAR     29  26  89 E5        30.22S WCI  24
ST CHARLES     CLEAR     28  26  92 SE7       30.24S WCI  21

$$
MOZ072>076-082>087-097>100-106>115-281200-
...SOUTH CENTRAL AND SOUTHEAST MISSOURI...

CITY           SKY/WX    TMP DP  RH WIND       PRES   REMARKS
CAPE GIRARDEAU CLEAR     29  27  92 CALM      30.28R
FARMINGTON     CLEAR     27  25  93 MISG      30.24F
POPLAR BLUFF   CLEAR     32  27  81 E3        30.26R
WEST PLAINS    CLEAR     33  28  81 SE7       30.19S WCI  27

$$



USA.gov is the U.S. government's official web portal to all federal, state and local government web resources and services.